TIME,�����g�[�mL�n,�t���O,�����g�[�mMJ�n,�t���O
2003/3/1 0:00,0,0,0,0
2003/3/1 0:15,0,0,0,0
2003/3/1 0:30,0,0,0,0
2003/3/1 0:45,0,0,0,0
2003/3/1 1:00,0,0,0,0
2003/3/1 1:15,0,0,0,0
2003/3/1 1:30,0,0,0,0
2003/3/1 1:45,0,0,0,0
2003/3/1 2:00,0,0,0,0
2003/3/1 2:15,0,0,0,0
2003/3/1 2:30,0,0,0,0
2003/3/1 2:45,0,0,0,0
2003/3/1 3:00,0,0,0,0
2003/3/1 3:15,0,0,0,0
2003/3/1 3:30,0,0,0,0
2003/3/1 3:45,0,0,0,0
2003/3/1 4:00,0,0,0,0
2003/3/1 4:15,0,0,0,0
2003/3/1 4:30,0,0,0,0
2003/3/1 4:45,0,0,0,0
2003/3/1 5:00,0,0,0,0
2003/3/1 5:15,0,0,0,0
2003/3/1 5:30,0,0,0,0
2003/3/1 5:45,0,0,0,0
2003/3/1 6:00,0,0,0,0
2003/3/1 6:15,0,0,0,0
2003/3/1 6:30,0,0,0,0
2003/3/1 6:45,0,0,0,0
2003/3/1 7:00,0,0,0,0
2003/3/1 7:15,0,0,0,0
2003/3/1 7:30,0.019219083,0,2.821361311,0
2003/3/1 7:45,0.03251965,0,4.77388462,0
2003/3/1 8:00,0.032295905,0,4.741038853,0
2003/3/1 8:15,0.030743483,0,4.513143233,0
2003/3/1 8:30,0.027687677,0,4.064551056,0
2003/3/1 8:45,0.022068,0,3.2395824,0
2003/3/1 9:00,0.019274253,0,2.829460267,0
2003/3/1 9:15,0.01614029,0,2.369394572,0
2003/3/1 9:30,0.017602295,0,2.584016906,0
2003/3/1 9:45,0.01382928,0,2.030138304,0
2003/3/1 10:00,0,0,0,0
2003/3/1 10:15,0,0,0,0
2003/3/1 10:30,0.01443615,0,2.11922682,0
2003/3/1 10:45,0.01918077,0,2.815737036,0
2003/3/1 11:00,0.017590035,0,2.582217138,0
2003/3/1 11:15,0.015125775,0,2.22046377,0
2003/3/1 11:30,0.014008583,0,2.056459911,0
2003/3/1 11:45,0.012457693,0,1.828789259,0
2003/3/1 12:00,0.01111982,0,1.632389576,0
2003/3/1 12:15,0,0,0,0
2003/3/1 12:30,0.008715328,0,1.279410077,0
2003/3/1 12:45,0.017475098,0,2.565344313,0
2003/3/1 13:00,0,0,0,0
2003/3/1 13:15,0,0,0,0
2003/3/1 13:30,0,0,0,0
2003/3/1 13:45,0,0,0,0
2003/3/1 14:00,0,0,0,0
2003/3/1 14:15,0,0,0,0
2003/3/1 14:30,0,0,0,0
2003/3/1 14:45,0,0,0,0
2003/3/1 15:00,0,0,0,0
2003/3/1 15:15,0,0,0,0
2003/3/1 15:30,0,0,0,0
2003/3/1 15:45,0,0,0,0
2003/3/1 16:00,0,0,0,0
2003/3/1 16:15,0,0,0,0
2003/3/1 16:30,0,0,0,0
2003/3/1 16:45,0,0,0,0
2003/3/1 17:00,0,0,0,0
2003/3/1 17:15,0,0,0,0
2003/3/1 17:30,0,0,0,0
2003/3/1 17:45,0,0,0,0
2003/3/1 18:00,0,0,0,0
2003/3/1 18:15,0,0,0,0
2003/3/1 18:30,0,0,0,0
2003/3/1 18:45,0,0,0,0
2003/3/1 19:00,0,0,0,0
2003/3/1 19:15,0,0,0,0
2003/3/1 19:30,0,0,0,0
2003/3/1 19:45,0.030223965,0,4.436878061,0
2003/3/1 20:00,0.029776475,0,4.371186532,0
2003/3/1 20:15,0.022040415,0,3.235532922,0
2003/3/1 20:30,0.003461918,0,0.508209489,0
2003/3/1 20:45,0,0,0,0
2003/3/1 21:00,0,0,0,0
2003/3/1 21:15,0,0,0,0
2003/3/1 21:30,0,0,0,0
2003/3/1 21:45,0,0,0,0
2003/3/1 22:00,0,0,0,0
2003/3/1 22:15,0,0,0,0
2003/3/1 22:30,0,0,0,0
2003/3/1 22:45,0,0,0,0
2003/3/1 23:00,0,0,0,0
2003/3/1 23:15,0,0,0,0
2003/3/1 23:30,0,0,0,0
2003/3/1 23:45,0,0,0,0
2003/3/2 0:00,0,0,0,0
2003/3/2 0:15,0,0,0,0
2003/3/2 0:30,0,0,0,0
2003/3/2 0:45,0,0,0,0
2003/3/2 1:00,0,0,0,0
2003/3/2 1:15,0,0,0,0
2003/3/2 1:30,0,0,0,0
2003/3/2 1:45,0,0,0,0
2003/3/2 2:00,0,0,0,0
2003/3/2 2:15,0,0,0,0
2003/3/2 2:30,0,0,0,0
2003/3/2 2:45,0,0,0,0
2003/3/2 3:00,0,0,0,0
2003/3/2 3:15,0,0,0,0
2003/3/2 3:30,0,0,0,0
2003/3/2 3:45,0,0,0,0
2003/3/2 4:00,0,0,0,0
2003/3/2 4:15,0,0,0,0
2003/3/2 4:30,0,0,0,0
2003/3/2 4:45,0,0,0,0
2003/3/2 5:00,0,0,0,0
2003/3/2 5:15,0,0,0,0
2003/3/2 5:30,0,0,0,0
2003/3/2 5:45,0.030892135,0,4.534965418,0
2003/3/2 6:00,0.032516585,0,4.773434677,0
2003/3/2 6:15,0.032516585,0,4.773434677,0
2003/3/2 6:30,0.032518117,0,4.773659648,0
2003/3/2 6:45,0.032416973,0,4.758811564,0
2003/3/2 7:00,0.03227445,0,4.73788926,0
2003/3/2 7:15,0.031770257,0,4.6638738,0
2003/3/2 7:30,0.020803687,0,3.053981325,0
2003/3/2 7:45,0,0,0,0
2003/3/2 8:00,0,0,0,0
2003/3/2 8:15,0,0,0,0
2003/3/2 8:30,0,0,0,0
2003/3/2 8:45,0,0,0,0
2003/3/2 9:00,0,0,0,0
2003/3/2 9:15,0,0,0,0
2003/3/2 9:30,0,0,0,0
2003/3/2 9:45,0,0,0,0
2003/3/2 10:00,0,0,0,0
2003/3/2 10:15,0,0,0,0
2003/3/2 10:30,0,0,0,0
2003/3/2 10:45,0,0,0,0
2003/3/2 11:00,0,0,0,0
2003/3/2 11:15,0,0,0,0
2003/3/2 11:30,0,0,0,0
2003/3/2 11:45,0,0,0,0
2003/3/2 12:00,0,0,0,0
2003/3/2 12:15,0,0,0,0
2003/3/2 12:30,0,0,0,0
2003/3/2 12:45,0,0,0,0
2003/3/2 13:00,0,0,0,0
2003/3/2 13:15,0,0,0,0
2003/3/2 13:30,0,0,0,0
2003/3/2 13:45,0,0,0,0
2003/3/2 14:00,0,0,0,0
2003/3/2 14:15,0,0,0,0
2003/3/2 14:30,0,0,0,0
2003/3/2 14:45,0,0,0,0
2003/3/2 15:00,0,0,0,0
2003/3/2 15:15,0,0,0,0
2003/3/2 15:30,0,0,0,0
2003/3/2 15:45,0,0,0,0
2003/3/2 16:00,0,0,0,0
2003/3/2 16:15,0,0,0,0
2003/3/2 16:30,0,0,0,0
2003/3/2 16:45,0,0,0,0
2003/3/2 17:00,0,0,0,0
2003/3/2 17:15,0,0,0,0
2003/3/2 17:30,0,0,0,0
2003/3/2 17:45,0,0,0,0
2003/3/2 18:00,0,0,0,0
2003/3/2 18:15,0.018900322,0,2.774567343,0
2003/3/2 18:30,0.032516585,0,4.773434677,0
2003/3/2 18:45,0.032516585,0,4.773434677,0
2003/3/2 19:00,0.031258403,0,4.588733488,0
2003/3/2 19:15,0.028404887,0,4.169837484,0
2003/3/2 19:30,0.023493225,0,3.44880543,0
2003/3/2 19:45,0.022667208,0,3.327546061,0
2003/3/2 20:00,0.019816757,0,2.909100001,0
2003/3/2 20:15,0.021226658,0,3.116073321,0
2003/3/2 20:30,0.01568667,0,2.302803156,0
2003/3/2 20:45,0.01059264,0,1.554999552,0
2003/3/2 21:00,0.017064388,0,2.505052085,0
2003/3/2 21:15,0,0,0,0
2003/3/2 21:30,0.008693872,0,1.276260483,0
2003/3/2 21:45,0.009558203,0,1.403144127,0
2003/3/2 22:00,0.012899053,0,1.893580907,0
2003/3/2 22:15,0.00589706,0,0.865688408,0
2003/3/2 22:30,0,0,0,0
2003/3/2 22:45,0,0,0,0
2003/3/2 23:00,0,0,0,0
2003/3/2 23:15,0,0,0,0
2003/3/2 23:30,0,0,0,0
2003/3/2 23:45,0,0,0,0
2003/3/3 0:00,0,0,0,0
2003/3/3 0:15,0,0,0,0
2003/3/3 0:30,0,0,0,0
2003/3/3 0:45,0,0,0,0
2003/3/3 1:00,0,0,0,0
2003/3/3 1:15,0,0,0,0
2003/3/3 1:30,0,0,0,0
2003/3/3 1:45,0,0,0,0
2003/3/3 2:00,0,0,0,0
2003/3/3 2:15,0,0,0,0
2003/3/3 2:30,0,0,0,0
2003/3/3 2:45,0,0,0,0
2003/3/3 3:00,0,0,0,0
2003/3/3 3:15,0,0,0,0
2003/3/3 3:30,0,0,0,0
2003/3/3 3:45,0,0,0,0
2003/3/3 4:00,0,0,0,0
2003/3/3 4:15,0,0,0,0
2003/3/3 4:30,0,0,0,0
2003/3/3 4:45,0,0,0,0
2003/3/3 5:00,0,0,0,0
2003/3/3 5:15,0,0,0,0
2003/3/3 5:30,0,0,0,0
2003/3/3 5:45,0.009861638,0,1.447688385,0
2003/3/3 6:00,0.032498195,0,4.770735026,0
2003/3/3 6:15,0.03063161,0,4.49672035,0
2003/3/3 6:30,0.01690654,0,2.481880072,0
2003/3/3 6:45,0.027348995,0,4.014832468,0
2003/3/3 7:00,0.02482037,0,3.643630315,0
2003/3/3 7:15,0.021488715,0,3.154543362,0
2003/3/3 7:30,0.023057995,0,3.384913666,0
2003/3/3 7:45,0,0,0,0
2003/3/3 8:00,0,0,0,0
2003/3/3 8:15,0,0,0,0
2003/3/3 8:30,0,0,0,0
2003/3/3 8:45,0,0,0,0
2003/3/3 9:00,0,0,0,0
2003/3/3 9:15,0,0,0,0
2003/3/3 9:30,0,0,0,0
2003/3/3 9:45,0,0,0,0
2003/3/3 10:00,0,0,0,0
2003/3/3 10:15,0,0,0,0
2003/3/3 10:30,0,0,0,0
2003/3/3 10:45,0,0,0,0
2003/3/3 11:00,0,0,0,0
2003/3/3 11:15,0,0,0,0
2003/3/3 11:30,0,0,0,0
2003/3/3 11:45,0,0,0,0
2003/3/3 12:00,0,0,0,0
2003/3/3 12:15,0,0,0,0
2003/3/3 12:30,0,0,0,0
2003/3/3 12:45,0,0,0,0
2003/3/3 13:00,0,0,0,0
2003/3/3 13:15,0,0,0,0
2003/3/3 13:30,0,0,0,0
2003/3/3 13:45,0,0,0,0
2003/3/3 14:00,0,0,0,0
2003/3/3 14:15,0,0,0,0
2003/3/3 14:30,0.014230795,0,2.089080706,0
2003/3/3 14:45,0.032511987,0,4.772759764,0
2003/3/3 15:00,0.030706703,0,4.507743928,0
2003/3/3 15:15,0.02627318,0,3.856902826,0
2003/3/3 15:30,0.02281586,0,3.349368248,0
2003/3/3 15:45,0.022857238,0,3.355442465,0
2003/3/3 16:00,0.007978195,0,1.171199026,0
2003/3/3 16:15,0,0,0,0
2003/3/3 16:30,0.01485299,0,2.180418932,0
2003/3/3 16:45,0.016978568,0,2.492453709,0
2003/3/3 17:00,0,0,0,0
2003/3/3 17:15,0,0,0,0
2003/3/3 17:30,0,0,0,0
2003/3/3 17:45,0,0,0,0
2003/3/3 18:00,0,0,0,0
2003/3/3 18:15,0.017594633,0,2.582892051,0
2003/3/3 18:30,0.023298598,0,3.420234113,0
2003/3/3 18:45,0.016577053,0,2.433511307,0
2003/3/3 19:00,0.014076012,0,2.066358635,0
2003/3/3 19:15,0.012270728,0,1.801342797,0
2003/3/3 19:30,0.011932045,0,1.751624206,0
2003/3/3 19:45,0.015712723,0,2.306627663,0
2003/3/3 20:00,0.020432823,0,2.999538343,0
2003/3/3 20:15,0.0161219,0,2.36669492,0
2003/3/3 20:30,0.011668455,0,1.712929194,0
2003/3/3 20:45,0.025146792,0,3.691549138,0
2003/3/3 21:00,0.024150668,0,3.545317989,0
2003/3/3 21:15,0.00677978,0,0.995271704,0
2003/3/3 21:30,0,0,0,0
2003/3/3 21:45,0,0,0,0
2003/3/3 22:00,0,0,0,0
2003/3/3 22:15,0,0,0,0
2003/3/3 22:30,0,0,0,0
2003/3/3 22:45,0,0,0,0
2003/3/3 23:00,0,0,0,0
2003/3/3 23:15,0,0,0,0
2003/3/3 23:30,0,0,0,0
2003/3/3 23:45,0,0,0,0
2003/3/4 0:00,0,0,0,0
2003/3/4 0:15,0,0,0,0
2003/3/4 0:30,0,0,0,0
2003/3/4 0:45,0,0,0,0
2003/3/4 1:00,0,0,0,0
2003/3/4 1:15,0,0,0,0
2003/3/4 1:30,0,0,0,0
2003/3/4 1:45,0,0,0,0
2003/3/4 2:00,0,0,0,0
2003/3/4 2:15,0,0,0,0
2003/3/4 2:30,0,0,0,0
2003/3/4 2:45,0,0,0,0
2003/3/4 3:00,0,0,0,0
2003/3/4 3:15,0,0,0,0
2003/3/4 3:30,0,0,0,0
2003/3/4 3:45,0,0,0,0
2003/3/4 4:00,0,0,0,0
2003/3/4 4:15,0,0,0,0
2003/3/4 4:30,0,0,0,0
2003/3/4 4:45,0,0,0,0
2003/3/4 5:00,0,0,0,0
2003/3/4 5:15,0,0,0,0
2003/3/4 5:30,0.01432581,0,2.103028908,0
2003/3/4 5:45,0.032541105,0,4.777034213,0
2003/3/4 6:00,0.03251965,0,4.77388462,0
2003/3/4 6:15,0.032521182,0,4.774109591,0
2003/3/4 6:30,0.03251965,0,4.77388462,0
2003/3/4 6:45,0.03251965,0,4.77388462,0
2003/3/4 7:00,0.03251965,0,4.77388462,0
2003/3/4 7:15,0.03251965,0,4.77388462,0
2003/3/4 7:30,0.032521182,0,4.774109591,0
2003/3/4 7:45,0.03251965,0,4.77388462,0
2003/3/4 8:00,0.021680278,0,3.182664737,0
2003/3/4 8:15,0,0,0,0
2003/3/4 8:30,0,0,0,0
2003/3/4 8:45,0,0,0,0
2003/3/4 9:00,0,0,0,0
2003/3/4 9:15,0,0,0,0
2003/3/4 9:30,0.017622218,0,2.586941529,0
2003/3/4 9:45,0.032541105,0,4.777034213,0
2003/3/4 10:00,0,0,0,0
2003/3/4 10:15,0,0,0,0
2003/3/4 10:30,0,0,0,0
2003/3/4 10:45,0,0,0,0
2003/3/4 11:00,0,0,0,0
2003/3/4 11:15,0,0,0,0
2003/3/4 11:30,0,0,0,0
2003/3/4 11:45,0,0,0,0
2003/3/4 12:00,0,0,0,0
2003/3/4 12:15,0,0,0,0
2003/3/4 12:30,0,0,0,0
2003/3/4 12:45,0,0,0,0
2003/3/4 13:00,0,0,0,0
2003/3/4 13:15,0,0,0,0
2003/3/4 13:30,0,0,0,0
2003/3/4 13:45,0,0,0,0
2003/3/4 14:00,0,0,0,0
2003/3/4 14:15,0,0,0,0
2003/3/4 14:30,0.013059965,0,1.917202862,0
2003/3/4 14:45,0.032533443,0,4.77590936,0
2003/3/4 15:00,0.032516585,0,4.773434677,0
2003/3/4 15:15,0.032518117,0,4.773659648,0
2003/3/4 15:30,0.032518117,0,4.773659648,0
2003/3/4 15:45,0.031463757,0,4.6188796,0
2003/3/4 16:00,0.02859032,0,4.197058978,0
2003/3/4 16:15,0.02739497,0,4.021581596,0
2003/3/4 16:30,0.009806468,0,1.439589429,0
2003/3/4 16:45,0,0,0,0
2003/3/4 17:00,0.018944765,0,2.781091502,0
2003/3/4 17:15,0.03108523,0,4.563311764,0
2003/3/4 17:30,0.029010225,0,4.258701029,0
2003/3/4 17:45,0.026556692,0,3.898522458,0
2003/3/4 18:00,0.028568865,0,4.193909381,0
2003/3/4 18:15,0.025064037,0,3.679400704,0
2003/3/4 18:30,0.024916918,0,3.65780349,0
2003/3/4 18:45,0.020904833,0,3.068829411,0
2003/3/4 19:00,0.016595443,0,2.436210959,0
2003/3/4 19:15,0.017473565,0,2.565119342,0
2003/3/4 19:30,0.018915648,0,2.776817053,0
2003/3/4 19:45,0.01749502,0,2.568268936,0
2003/3/4 20:00,0.02337982,0,3.432157576,0
2003/3/4 20:15,0.016339515,0,2.398640802,0
2003/3/4 20:30,0.006569827,0,0.964450677,0
2003/3/4 20:45,0,0,0,0
2003/3/4 21:00,0.019445893,0,2.854657019,0
2003/3/4 21:15,0.009748232,0,1.431040531,0
2003/3/4 21:30,0,0,0,0
2003/3/4 21:45,0,0,0,0
2003/3/4 22:00,0,0,0,0
2003/3/4 22:15,0.000203822,0,0.029921143,0
2003/3/4 22:30,0.010698383,0,1.570522551,0
2003/3/4 22:45,0,0,0,0
2003/3/4 23:00,0.003742365,0,0.549379182,0
2003/3/4 23:15,0.010840905,0,1.591444854,0
2003/3/4 23:30,0,0,0,0
2003/3/4 23:45,0,0,0,0
2003/3/5 0:00,0,0,0,0
2003/3/5 0:15,0,0,0,0
2003/3/5 0:30,0,0,0,0
2003/3/5 0:45,0,0,0,0
2003/3/5 1:00,0,0,0,0
2003/3/5 1:15,0,0,0,0
2003/3/5 1:30,0,0,0,0
2003/3/5 1:45,0,0,0,0
2003/3/5 2:00,0,0,0,0
2003/3/5 2:15,0,0,0,0
2003/3/5 2:30,0,0,0,0
2003/3/5 2:45,0,0,0,0
2003/3/5 3:00,0,0,0,0
2003/3/5 3:15,0,0,0,0
2003/3/5 3:30,0,0,0,0
2003/3/5 3:45,0,0,0,0
2003/3/5 4:00,0,0,0,0
2003/3/5 4:15,0,0,0,0
2003/3/5 4:30,0,0,0,0
2003/3/5 4:45,0,0,0,0
2003/3/5 5:00,0,0,0,0
2003/3/5 5:15,0,0,0,0
2003/3/5 5:30,0,0,0,0
2003/3/5 5:45,0.001511045,0,0.221821406,0
2003/3/5 6:00,0.032547235,0,4.777934098,0
2003/3/5 6:15,0.032518117,0,4.773659648,0
2003/3/5 6:30,0.03251965,0,4.77388462,0
2003/3/5 6:45,0.032518117,0,4.773659648,0
2003/3/5 7:00,0.03251965,0,4.77388462,0
2003/3/5 7:15,0.032518117,0,4.773659648,0
2003/3/5 7:30,0.03251965,0,4.77388462,0
2003/3/5 7:45,0.021680278,0,3.182664737,0
2003/3/5 8:00,0,0,0,0
2003/3/5 8:15,0,0,0,0
2003/3/5 8:30,0,0,0,0
2003/3/5 8:45,0,0,0,0
2003/3/5 9:00,0,0,0,0
2003/3/5 9:15,0,0,0,0
2003/3/5 9:30,0,0,0,0
2003/3/5 9:45,0,0,0,0
2003/3/5 10:00,0,0,0,0
2003/3/5 10:15,0,0,0,0
2003/3/5 10:30,0,0,0,0
2003/3/5 10:45,0,0,0,0
2003/3/5 11:00,0,0,0,0
2003/3/5 11:15,0,0,0,0
2003/3/5 11:30,0,0,0,0
2003/3/5 11:45,0,0,0,0
2003/3/5 12:00,0,0,0,0
2003/3/5 12:15,0,0,0,0
2003/3/5 12:30,0,0,0,0
2003/3/5 12:45,0,0,0,0
2003/3/5 13:00,0,0,0,0
2003/3/5 13:15,0,0,0,0
2003/3/5 13:30,0,0,0,0
2003/3/5 13:45,0,0,0,0
2003/3/5 14:00,0,0,0,0
2003/3/5 14:15,0,0,0,0
2003/3/5 14:30,0.011412528,0,1.675359037,0
2003/3/5 14:45,0.021698668,0,3.185364389,0
2003/3/5 15:00,0,0,0,0
2003/3/5 15:15,0.02238676,0,3.286376368,0
2003/3/5 15:30,0.03252578,0,4.774784504,0
2003/3/5 15:45,0.032518117,0,4.773659648,0
2003/3/5 16:00,0.03251965,0,4.77388462,0
2003/3/5 16:15,0,0,0,0
2003/3/5 16:30,0,0,0,0
2003/3/5 16:45,0,0,0,0
2003/3/5 17:00,0,0,0,0
2003/3/5 17:15,0,0,0,0
2003/3/5 17:30,0,0,0,0
2003/3/5 17:45,0.011079975,0,1.62654033,0
2003/3/5 18:00,0.032530378,0,4.775459418,0
2003/3/5 18:15,0.032518117,0,4.773659648,0
2003/3/5 18:30,0.030426255,0,4.466574234,0
2003/3/5 18:45,0.020365392,0,2.989639619,0
2003/3/5 19:00,0,0,0,0
2003/3/5 19:15,0,0,0,0
2003/3/5 19:30,0,0,0,0
2003/3/5 19:45,0.022745365,0,3.339019582,0
2003/3/5 20:00,0.031296715,0,4.59435776,0
2003/3/5 20:15,0.025946757,0,3.808984,0
2003/3/5 20:30,0.020901768,0,3.068379469,0
2003/3/5 20:45,0.02015544,0,2.958818592,0
2003/3/5 21:00,0.012040853,0,1.767597147,0
2003/3/5 21:15,0,0,0,0
2003/3/5 21:30,0.009639425,0,1.41506759,0
2003/3/5 21:45,0.025111545,0,3.686374807,0
2003/3/5 22:00,0.018566237,0,2.725523665,0
2003/3/5 22:15,0.016871293,0,2.476705739,0
2003/3/5 22:30,0.0156315,0,2.2947042,0
2003/3/5 22:45,0.016276682,0,2.389416991,0
2003/3/5 23:00,0.015475185,0,2.271757158,0
2003/3/5 23:15,0,0,0,0
2003/3/5 23:30,0,0,0,0
2003/3/5 23:45,0,0,0,0
2003/3/6 0:00,0,0,0,0
2003/3/6 0:15,0,0,0,0
2003/3/6 0:30,0,0,0,0
2003/3/6 0:45,0,0,0,0
2003/3/6 1:00,0,0,0,0
2003/3/6 1:15,0,0,0,0
2003/3/6 1:30,0,0,0,0
2003/3/6 1:45,0,0,0,0
2003/3/6 2:00,0,0,0,0
2003/3/6 2:15,0,0,0,0
2003/3/6 2:30,0,0,0,0
2003/3/6 2:45,0,0,0,0
2003/3/6 3:00,0,0,0,0
2003/3/6 3:15,0,0,0,0
2003/3/6 3:30,0,0,0,0
2003/3/6 3:45,0,0,0,0
2003/3/6 4:00,0,0,0,0
2003/3/6 4:15,0,0,0,0
2003/3/6 4:30,0,0,0,0
2003/3/6 4:45,0,0,0,0
2003/3/6 5:00,0,0,0,0
2003/3/6 5:15,0.024322308,0,3.570514741,0
2003/3/6 5:30,0,0,0,0
2003/3/6 5:45,0,0,0,0
2003/3/6 6:00,0,0,0,0
2003/3/6 6:15,0.011613285,0,1.704830238,0
2003/3/6 6:30,0.03253191,0,4.775684389,0
2003/3/6 6:45,0.032518117,0,4.773659648,0
2003/3/6 7:00,0.03251965,0,4.77388462,0
2003/3/6 7:15,0.031987872,0,4.695819682,0
2003/3/6 7:30,0.03251965,0,4.77388462,0
2003/3/6 7:45,0.032518117,0,4.773659648,0
2003/3/6 8:00,0,0,0,0
2003/3/6 8:15,0,0,0,0
2003/3/6 8:30,0,0,0,0
2003/3/6 8:45,0,0,0,0
2003/3/6 9:00,0,0,0,0
2003/3/6 9:15,0,0,0,0
2003/3/6 9:30,0.005941502,0,0.872212567,0
2003/3/6 9:45,0.010848567,0,1.592569709,0
2003/3/6 10:00,0,0,0,0
2003/3/6 10:15,0,0,0,0
2003/3/6 10:30,0,0,0,0
2003/3/6 10:45,0,0,0,0
2003/3/6 11:00,0,0,0,0
2003/3/6 11:15,0,0,0,0
2003/3/6 11:30,0,0,0,0
2003/3/6 11:45,0,0,0,0
2003/3/6 12:00,0,0,0,0
2003/3/6 12:15,0,0,0,0
2003/3/6 12:30,0,0,0,0
2003/3/6 12:45,0,0,0,0
2003/3/6 13:00,0,0,0,0
2003/3/6 13:15,0,0,0,0
2003/3/6 13:30,0,0,0,0
2003/3/6 13:45,0,0,0,0
2003/3/6 14:00,0,0,0,0
2003/3/6 14:15,0,0,0,0
2003/3/6 14:30,0.026385053,0,3.873325709,0
2003/3/6 14:45,0.032515052,0,4.773209706,0
2003/3/6 15:00,0.010839373,0,1.591219883,0
2003/3/6 15:15,0.012263065,0,1.800217942,0
2003/3/6 15:30,0.03151433,0,4.626303646,0
2003/3/6 15:45,0,0,0,0
2003/3/6 16:00,0.01891105,0,2.77614214,0
2003/3/6 16:15,0.02616897,0,3.841604795,0
2003/3/6 16:30,0.02382118,0,3.496949224,0
2003/3/6 16:45,0.00693303,0,1.017768804,0
2003/3/6 17:00,0,0,0,0
2003/3/6 17:15,0,0,0,0
2003/3/6 17:30,0,0,0,0
2003/3/6 17:45,0,0,0,0
2003/3/6 18:00,0.026219543,0,3.849028841,0
2003/3/6 18:15,0.031865273,0,4.677822004,0
2003/3/6 18:30,0.026403443,0,3.87602536,0
2003/3/6 18:45,0.023310857,0,3.422033881,0
2003/3/6 19:00,0.014839198,0,2.178394193,0
2003/3/6 19:15,0.019825953,0,2.910449827,0
2003/3/6 19:30,0.018970818,0,2.784916009,0
2003/3/6 19:45,0.018498808,0,2.715624941,0
2003/3/6 20:00,0.018075837,0,2.653532945,0
2003/3/6 20:15,0.014934212,0,2.192342395,0
2003/3/6 20:30,0.013938087,0,2.046111245,0
2003/3/6 20:45,0.012244675,0,1.79751829,0
2003/3/6 21:00,0,0,0,0
2003/3/6 21:15,0.016969372,0,2.491103883,0
2003/3/6 21:30,0.01251133,0,1.836663244,0
2003/3/6 21:45,0.01008998,0,1.481209064,0
2003/3/6 22:00,0,0,0,0
2003/3/6 22:15,0.003392955,0,0.498085794,0
2003/3/6 22:30,0.015511965,0,2.277156462,0
2003/3/6 22:45,0.0137925,0,2.024739,0
2003/3/6 23:00,0.011860018,0,1.741050569,0
2003/3/6 23:15,0.011688378,0,1.715853817,0
2003/3/6 23:30,0.012013268,0,1.763547669,0
2003/3/6 23:45,0,0,0,0
2003/3/7 0:00,0,0,0,0
2003/3/7 0:15,0,0,0,0
2003/3/7 0:30,0,0,0,0
2003/3/7 0:45,0,0,0,0
2003/3/7 1:00,0,0,0,0
2003/3/7 1:15,0,0,0,0
2003/3/7 1:30,0,0,0,0
2003/3/7 1:45,0,0,0,0
2003/3/7 2:00,0,0,0,0
2003/3/7 2:15,0,0,0,0
2003/3/7 2:30,0,0,0,0
2003/3/7 2:45,0,0,0,0
2003/3/7 3:00,0,0,0,0
2003/3/7 3:15,0,0,0,0
2003/3/7 3:30,0,0,0,0
2003/3/7 3:45,0,0,0,0
2003/3/7 4:00,0,0,0,0
2003/3/7 4:15,0,0,0,0
2003/3/7 4:30,0,0,0,0
2003/3/7 4:45,0,0,0,0
2003/3/7 5:00,0,0,0,0
2003/3/7 5:15,0,0,0,0
2003/3/7 5:30,0,0,0,0
2003/3/7 5:45,0,0,0,0
2003/3/7 6:00,0.02122819,0,3.116298292,0
2003/3/7 6:15,0.029414805,0,4.318093375,0
2003/3/7 6:30,0.023739958,0,3.485025761,0
2003/3/7 6:45,0.020491058,0,3.008087241,0
2003/3/7 7:00,0.014882108,0,2.184693381,0
2003/3/7 7:15,0,0,0,0
2003/3/7 7:30,0,0,0,0
2003/3/7 7:45,0,0,0,0
2003/3/7 8:00,0.027316813,0,4.010108076,0
2003/3/7 8:15,0.00974057,0,1.429915676,0
2003/3/7 8:30,0,0,0,0
2003/3/7 8:45,0,0,0,0
2003/3/7 9:00,0,0,0,0
2003/3/7 9:15,0.01235195,0,1.81326626,0
2003/3/7 9:30,0.010840905,0,1.591444854,0
2003/3/7 9:45,0,0,0,0
2003/3/7 10:00,0,0,0,0
2003/3/7 10:15,0,0,0,0
2003/3/7 10:30,0,0,0,0
2003/3/7 10:45,0,0,0,0
2003/3/7 11:00,0,0,0,0
2003/3/7 11:15,0,0,0,0
2003/3/7 11:30,0,0,0,0
2003/3/7 11:45,0,0,0,0
2003/3/7 12:00,0,0,0,0
2003/3/7 12:15,0,0,0,0
2003/3/7 12:30,0,0,0,0
2003/3/7 12:45,0,0,0,0
2003/3/7 13:00,0,0,0,0
2003/3/7 13:15,0,0,0,0
2003/3/7 13:30,0,0,0,0
2003/3/7 13:45,0,0,0,0
2003/3/7 14:00,0,0,0,0
2003/3/7 14:15,0,0,0,0
2003/3/7 14:30,0,0,0,0
2003/3/7 14:45,0,0,0,0
2003/3/7 15:00,0,0,0,0
2003/3/7 15:15,0,0,0,0
2003/3/7 15:30,0.0175318,0,2.57366824,0
2003/3/7 15:45,0.028769622,0,4.223380583,0
2003/3/7 16:00,0.021758435,0,3.194138258,0
2003/3/7 16:15,0.020126323,0,2.954544143,0
2003/3/7 16:30,0.015035357,0,2.207190481,0
2003/3/7 16:45,0,0,0,0
2003/3/7 17:00,0,0,0,0
2003/3/7 17:15,0,0,0,0
2003/3/7 17:30,0,0,0,0
2003/3/7 17:45,0,0,0,0
2003/3/7 18:00,0,0,0,0
2003/3/7 18:15,0,0,0,0
2003/3/7 18:30,0.022659545,0,3.326421206,0
2003/3/7 18:45,0.02924623,0,4.293346565,0
2003/3/7 19:00,0.009230248,0,1.355000333,0
2003/3/7 19:15,0,0,0,0
2003/3/7 19:30,0,0,0,0
2003/3/7 19:45,0,0,0,0
2003/3/7 20:00,0,0,0,0
2003/3/7 20:15,0,0,0,0
2003/3/7 20:30,0.013864528,0,2.035312637,0
2003/3/7 20:45,0.02553145,0,3.748016858,0
2003/3/7 21:00,0.020348535,0,2.987164938,0
2003/3/7 21:15,0.024815772,0,3.642955402,0
2003/3/7 21:30,0.018675045,0,2.741496606,0
2003/3/7 21:45,0.02225803,0,3.267478804,0
2003/3/7 22:00,0.010785735,0,1.583345898,0
2003/3/7 22:15,0,0,0,0
2003/3/7 22:30,0,0,0,0
2003/3/7 22:45,0,0,0,0
2003/3/7 23:00,0,0,0,0
2003/3/7 23:15,0,0,0,0
2003/3/7 23:30,0,0,0,0
2003/3/7 23:45,0,0,0,0
2003/3/8 0:00,0,0,0,0
2003/3/8 0:15,0,0,0,0
2003/3/8 0:30,0,0,0,0
2003/3/8 0:45,0,0,0,0
2003/3/8 1:00,0,0,0,0
2003/3/8 1:15,0,0,0,0
2003/3/8 1:30,0,0,0,0
2003/3/8 1:45,0,0,0,0
2003/3/8 2:00,0,0,0,0
2003/3/8 2:15,0,0,0,0
2003/3/8 2:30,0,0,0,0
2003/3/8 2:45,0,0,0,0
2003/3/8 3:00,0,0,0,0
2003/3/8 3:15,0,0,0,0
2003/3/8 3:30,0,0,0,0
2003/3/8 3:45,0,0,0,0
2003/3/8 4:00,0,0,0,0
2003/3/8 4:15,0,0,0,0
2003/3/8 4:30,0,0,0,0
2003/3/8 4:45,0,0,0,0
2003/3/8 5:00,0,0,0,0
2003/3/8 5:15,0,0,0,0
2003/3/8 5:30,0,0,0,0
2003/3/8 5:45,0,0,0,0
2003/3/8 6:00,0,0,0,0
2003/3/8 6:15,0,0,0,0
2003/3/8 6:30,0,0,0,0
2003/3/8 6:45,0.03174727,0,4.660499236,0
2003/3/8 7:00,0.032516585,0,4.773434677,0
2003/3/8 7:15,0.032516585,0,4.773434677,0
2003/3/8 7:30,0.021678745,0,3.182439766,0
2003/3/8 7:45,0,0,0,0
2003/3/8 8:00,0,0,0,0
2003/3/8 8:15,0,0,0,0
2003/3/8 8:30,0,0,0,0
2003/3/8 8:45,0,0,0,0
2003/3/8 9:00,0,0,0,0
2003/3/8 9:15,0,0,0,0
2003/3/8 9:30,0,0,0,0
2003/3/8 9:45,0,0,0,0
2003/3/8 10:00,0.004019748,0,0.590098933,0
2003/3/8 10:15,0.032528845,0,4.775234447,0
2003/3/8 10:30,0.021677213,0,3.182214795,0
2003/3/8 10:45,0,0,0,0
2003/3/8 11:00,0,0,0,0
2003/3/8 11:15,0,0,0,0
2003/3/8 11:30,0,0,0,0
2003/3/8 11:45,0,0,0,0
2003/3/8 12:00,0,0,0,0
2003/3/8 12:15,0,0,0,0
2003/3/8 12:30,0,0,0,0
2003/3/8 12:45,0,0,0,0
2003/3/8 13:00,0,0,0,0
2003/3/8 13:15,0,0,0,0
2003/3/8 13:30,0,0,0,0
2003/3/8 13:45,0,0,0,0
2003/3/8 14:00,0,0,0,0
2003/3/8 14:15,0,0,0,0
2003/3/8 14:30,0,0,0,0
2003/3/8 14:45,0,0,0,0
2003/3/8 15:00,0,0,0,0
2003/3/8 15:15,0,0,0,0
2003/3/8 15:30,0,0,0,0
2003/3/8 15:45,0,0,0,0
2003/3/8 16:00,0,0,0,0
2003/3/8 16:15,0,0,0,0
2003/3/8 16:30,0,0,0,0
2003/3/8 16:45,0,0,0,0
2003/3/8 17:00,0,0,0,0
2003/3/8 17:15,0,0,0,0
2003/3/8 17:30,0,0,0,0
2003/3/8 17:45,0,0,0,0
2003/3/8 18:00,0,0,0,0
2003/3/8 18:15,0.02830834,0,4.155664313,0
2003/3/8 18:30,0.032515052,0,4.773209706,0
2003/3/8 18:45,0.032516585,0,4.773434677,0
2003/3/8 19:00,0.032352607,0,4.74936278,0
2003/3/8 19:15,0.030979488,0,4.547788765,0
2003/3/8 19:30,0.026155178,0,3.839580058,0
2003/3/8 19:45,0.031224687,0,4.583784125,0
2003/3/8 20:00,0.031926573,0,4.686820844,0
2003/3/8 20:15,0.032191695,0,4.725740826,0
2003/3/8 20:30,0.03129365,0,4.593907822,0
2003/3/8 20:45,0.031537318,0,4.62967821,0
2003/3/8 21:00,0,0,0,0
2003/3/8 21:15,0,0,0,0
2003/3/8 21:30,0.021071875,0,3.09335125,0
2003/3/8 21:45,0,0,0,0
2003/3/8 22:00,0,0,0,0
2003/3/8 22:15,0,0,0,0
2003/3/8 22:30,0.002870372,0,0.421370683,0
2003/3/8 22:45,0.032539572,0,4.776809242,0
2003/3/8 23:00,0.032518117,0,4.773659648,0
2003/3/8 23:15,0.021678745,0,3.182439766,0
2003/3/8 23:30,0.019853538,0,2.914499305,0
2003/3/8 23:45,0.01819384,0,2.670855712,0
2003/3/9 0:00,0,0,0,0
2003/3/9 0:15,0,0,0,0
2003/3/9 0:30,0,0,0,0
2003/3/9 0:45,0,0,0,0
2003/3/9 1:00,0,0,0,0
2003/3/9 1:15,0,0,0,0
2003/3/9 1:30,0,0,0,0
2003/3/9 1:45,0,0,0,0
2003/3/9 2:00,0,0,0,0
2003/3/9 2:15,0,0,0,0
2003/3/9 2:30,0,0,0,0
2003/3/9 2:45,0,0,0,0
2003/3/9 3:00,0,0,0,0
2003/3/9 3:15,0,0,0,0
2003/3/9 3:30,0,0,0,0
2003/3/9 3:45,0,0,0,0
2003/3/9 4:00,0,0,0,0
2003/3/9 4:15,0,0,0,0
2003/3/9 4:30,0,0,0,0
2003/3/9 4:45,0,0,0,0
2003/3/9 5:00,0,0,0,0
2003/3/9 5:15,0,0,0,0
2003/3/9 5:30,0,0,0,0
2003/3/9 5:45,0,0,0,0
2003/3/9 6:00,0,0,0,0
2003/3/9 6:15,0,0,0,0
2003/3/9 6:30,0.000583882,0,0.085713951,0
2003/3/9 6:45,0.032505858,0,4.771859882,0
2003/3/9 7:00,0.032534975,0,4.776134332,0
2003/3/9 7:15,0.03251965,0,4.77388462,0
2003/3/9 7:30,0.03251965,0,4.77388462,0
2003/3/9 7:45,0.03251965,0,4.77388462,0
2003/3/9 8:00,0,0,0,0
2003/3/9 8:15,0,0,0,0
2003/3/9 8:30,0,0,0,0
2003/3/9 8:45,0,0,0,0
2003/3/9 9:00,0,0,0,0
2003/3/9 9:15,0,0,0,0
2003/3/9 9:30,0,0,0,0
2003/3/9 9:45,0,0,0,0
2003/3/9 10:00,0,0,0,0
2003/3/9 10:15,0,0,0,0
2003/3/9 10:30,0,0,0,0